Weather Roundup
Issued by NWS Chicago, IL

Home | Current Version | Previous Version | Text Only | Print | Product List | Glossary On
Versions: 1 2 3 4 5 6 7 8 9 10 11 12 13 14 15 16 17 18 19 20 21 22 23 24 25 26 27 28 29 30 31 32 33 34 35 36 37 38 39 40 41 42 43 44 45 46 47 48 49 50
000
NZUS59 KLOT 291403
HRRLOT

CHICAGO AREA WEATHER ROUNDUP
NATIONAL WEATHER SERVICE CHICAGO/ROMEOVILLE IL
900 AM CDT SAT APR 29 2017

NOTE: "FAIR" INDICATES FEW OR NO CLOUDS BELOW 12,000 FEET WITH NO
SIGNIFICANT WEATHER AND/OR OBSTRUCTIONS TO VISIBILITY.

* THESE STATIONS ARE NOT UNDER NWS QUALITY CONTROL. THEY ALSO MAY NOT
  REPORT WEATHER SUCH AS PRECIPITATION OR FOG.

ILZ005-006-012>014-019>023-291500-
NORTHEAST ILLINOIS

CITY           SKY/WX    TMP DP  RH WIND       PRES   REMARKS
OHARE          CLOUDY    45  32  60 NE21      30.16R
MIDWAY         CLOUDY    46  36  68 N20G29    30.14S
AURORA         CLOUDY    47  32  56 NE22G29   30.12F
LANSING*       CLOUDY    46  40  81 N15G22    30.13S
WAUKEGAN       CLOUDY    42  35  76 N16G30    30.18R
DUPAGE AIRPORT CLOUDY    46  33  60 NE17G30   30.14S
WHEELING       CLOUDY    43  36  76 NE16G29   30.19R
MORRIS*        CLOUDY    47  36  66 NE10G21   30.08F
NORTHERLY ISL    N/A     44  36  73 N21         N/A
$$

WIZ051-052-058>065-066-070>072-291500-
SOUTHEAST WISCONSIN

CITY           SKY/WX    TMP DP  RH WIND       PRES   REMARKS
MILWAUKEE      CLOUDY    41  33  73 N21G28    30.22R
KENOSHA*       CLOUDY    42  34  73 NE17G26   30.20R
RACINE*        CLOUDY    41  33  73 N23G31    30.23R
WAUKESHA       SUNNY     39  28  65 NE15      30.23R
$$

INZ001>003-010>013-019-020-291500-
NORTHWEST INDIANA

CITY           SKY/WX    TMP DP  RH WIND       PRES   REMARKS
GARY*          CLOUDY    46  39  76 N17G31    30.15S
MICHIGAN CITY* NOT AVBL
RENSSELAER*    NOT AVBL
VALPARAISO     CLOUDY    50  44  80 N10       30.10S
$$

LMZ740>746-291500-
SOUTHERN LAKE MICHIGAN

STATION/POSITION TIME  SKY/WX   TEMP WIND        PRES    VSBY
                                AIR  DIR/SP/G
                 (UTC)          (F)  (DEG/KT/KT) (MB)    (MI)
HARRISON CRIB    1330            44   10/ 24/ 27   N/A
BURNHAM HARBOR   1400            44  360/ 18/ 23   N/A
CALUMET HARBOR   1330            45  360/ 17/ 23 1020.0F
BURNS HARBOR     1340            45   20/ 20/ 24 1019.6F
MICHIGAN CITY    1340            44   10/ 22/ 23   N/A
$$

ABBREVIATIONS USED IN REMARKS
   TC - TEMPERATURE IN CELSIUS
  WCI - WIND CHILL INDEX
   HX - HEAT INDEX
  VSB - VISIBILITY
$$




USA.gov is the U.S. government's official web portal to all federal, state and local government web resources and services.